KE5BCK Weather Reports


time (UTC)temp
C
wind
direction
speed
KPH
gust
KPH
rain 1hr
cm
rain 24hr
cm
rain mn
cm
humidity
%
barometer
mb
20260510044543 22 101 0.0 6.4 0.00 0.05 0.05 78 1011.1
20260510043041 22 157 0.0 0.0 0.00 0.05 0.05 77 1011.2
20260510041540 22 157 0.0 0.0 0.00 0.05 0.05 76 1011.0
20260510040142 23 157 0.0 0.0 0.00 0.05 0.05 76 1011.0
20260510034536 23 157 0.0 3.2 0.00 0.05 0.05 75 1010.9
20260510033043 23 160 0.0 0.0 0.00 0.05 0.05 75 1010.7
20260510031535 24 160 0.0 1.6 0.00 0.05 0.05 73 1010.5
20260510030135 25 160 0.0 3.2 0.00 0.05 0.05 72 1010.4
20260510024548 26 163 0.0 4.8 0.00 0.05 0.05 71 1010.2
20260510023048 26 149 1.6 14.5 0.00 0.05 0.05 71 1009.9
20260510021547 26 148 0.0 11.3 0.00 0.05 0.05 70 1009.6
20260510020146 26 215 1.6 8.0 0.00 0.05 0.05 68 1009.6
20260510014545 26 150 0.0 3.2 0.00 0.05 0.05 66 1009.4
20260510013043 27 155 3.2 8.0 0.00 0.05 0.05 64 1009.3
20260510011543 27 120 3.2 9.7 0.00 0.05 0.05 61 1009.1
20260510010142 27 112 4.8 11.3 0.00 0.05 0.05 58 1009.2
20260510004539 28 123 1.6 11.3 0.00 0.05 0.05 59 1009.0
20260510003054 28 149 1.6 8.0 0.00 0.05 0.05 57 1008.8
20260510001538 29 117 1.6 6.4 0.00 0.05 0.05 53 1008.7
20260510000139 30 139 1.6 11.3 0.00 0.05 0.05 49 1008.7
20260509234542 30 105 0.0 6.4 0.00 0.05 0.05 45 1008.6
20260509233037 31 107 1.6 9.7 0.00 0.05 0.05 44 1008.5
20260509231534 31 138 1.6 11.3 0.00 0.05 0.05 43 1008.5
20260509230134 31 88 1.6 12.9 0.00 0.05 0.05 41 1008.5
20260509224600 31 101 1.6 11.3 0.00 0.05 0.05 44 1008.6
20260509223101 31 140 0.0 11.3 0.00 0.05 0.05 43 1008.6
20260509221551 31 105 1.6 11.3 0.00 0.05 0.05 43 1008.4
20260509220149 31 86 0.0 11.3 0.00 0.05 0.05 42 1008.4
20260509214552 31 97 4.8 16.1 0.00 0.05 0.05 44 1008.5
20260509213051 32 148 3.2 17.7 0.00 0.05 0.05 43 1008.7
20260509211547 32 132 6.4 17.7 0.00 0.05 0.05 39 1008.9
20260509210149 32 120 1.6 6.4 0.00 0.05 0.05 38 1009.1
20260509204554 31 79 0.0 6.4 0.00 0.05 0.05 37 1009.1
20260509203056 31 111 3.2 16.1 0.00 0.05 0.05 39 1009.2
20260509201544 29 110 6.4 17.7 0.00 0.05 0.05 39 1009.5
20260509200144 27 77 3.2 24.1 0.00 0.05 0.05 46 1010.2
20260509194549 28 63 8.0 20.9 0.00 0.05 0.05 43 1010.3
20260509193048 31 100 1.6 12.9 0.00 0.05 0.05 45 1010.2
20260509191546 32 205 1.6 11.3 0.00 0.05 0.05 50 1010.0
20260509190141 32 159 1.6 12.9 0.00 0.05 0.05 46 1010.0
20260509184548 31 15 3.2 12.9 0.00 0.05 0.05 51 1010.2
20260509183040 30 215 1.6 11.3 0.00 0.05 0.05 57 1010.4
20260509181554 30 360 0.0 9.7 0.00 0.05 0.05 58 1010.6
20260509180137 30 214 3.2 11.3 0.00 0.05 0.05 61 1010.7
20260509174542 29 315 0.0 4.8 0.00 0.05 0.05 66 1010.6
20260509173047 30 171 0.0 4.8 0.00 0.05 0.05 61 1011.3
20260509171549 30 206 0.0 8.0 0.00 0.05 0.05 62 1011.3
20260509170138 29 215 4.8 12.9 0.00 0.05 0.05 68 1011.2
20260509164543 28 317 3.2 11.3 0.00 0.05 0.05 67 1011.2
20260509163040 28 188 1.6 11.3 0.00 0.05 0.05 71 1011.4
20260509161541 27 173 6.4 16.1 0.00 0.05 0.05 73 1011.3
20260509160007 26 230 3.2 14.5 0.00 0.05 0.05 76 1011.5
20260509154502 25 214 4.8 17.7 0.00 0.05 0.05 81 1011.5
20260509153109 24 201 3.2 14.5 0.00 0.05 0.05 84 1011.4
20260509151601 23 174 3.2 11.3 0.00 0.05 0.05 85 1011.2
20260509150152 23 142 1.6 9.7 0.00 0.05 0.05 86 1011.2
20260509144556 23 194 3.2 9.7 0.00 0.05 0.05 86 1010.9
20260509143106 23 172 3.2 14.5 0.00 0.05 0.05 87 1011.1
20260509141551 23 112 1.6 9.7 0.00 0.05 0.05 88 1010.7
20260509140149 22 277 1.6 8.0 0.00 0.05 0.05 90 1010.4
20260509134547 22 107 1.6 11.3 0.00 0.05 0.05 92 1010.5
20260509133057 21 173 0.0 4.8 0.03 0.05 0.05 93 1010.8
20260509131544 21 24 0.0 3.2 0.03 0.05 0.05 92 1011.2
20260509130144 21 24 0.0 3.2 0.03 0.05 0.05 92 1011.5
20260509124549 21 16 0.0 0.0 0.03 0.05 0.05 92 1011.0
20260509123045 21 17 0.0 0.0 0.00 0.03 0.03 92 1010.8
20260509121549 21 17 0.0 0.0 0.00 0.03 0.03 91 1010.8
20260509120141 21 17 0.0 3.2 0.00 0.03 0.03 91 1010.5
20260509114545 21 27 0.0 4.8 0.00 0.03 0.03 92 1011.0
20260509113044 21 325 0.0 4.8 0.00 0.03 0.03 92 1011.3
20260509111542 21 355 0.0 8.0 0.00 0.03 0.03 92 1011.8
20260509110140 21 29 0.0 0.0 0.03 0.03 0.03 91 1011.9
20260509104600 21 34 0.0 0.0 0.03 0.03 0.03 91 1012.2
20260509103042 21 34 0.0 0.0 0.03 0.03 0.03 91 1011.9
20260509101540 21 40 0.0 0.0 0.03 0.03 0.03 92 1011.9
20260509100137 21 49 0.0 0.0 0.00 0.00 0.00 91 1011.3
20260509094537 21 55 0.0 0.0 0.00 0.00 0.00 91 1010.6
20260509093035 21 55 0.0 0.0 0.00 0.00 0.00 91 1010.6
20260509091540 21 55 0.0 0.0 0.00 0.00 0.00 91 1010.3
20260509090133 21 55 0.0 0.0 0.00 0.00 0.00 91 1010.4
20260509084605 21 38 0.0 0.0 0.00 0.00 0.00 91 1010.6
20260509083054 21 134 0.0 0.0 0.00 0.00 0.00 90 1010.9
20260509081555 21 134 0.0 1.6 0.00 0.00 0.00 90 1011.0
20260509080151 21 135 0.0 0.0 0.00 0.00 0.00 90 1010.8
20260509074553 21 139 0.0 0.0 0.00 0.00 0.00 89 1010.9
20260509073053 21 139 0.0 0.0 0.00 0.00 0.00 89 1010.9
20260509071552 21 139 0.0 0.0 0.00 0.00 0.00 88 1011.3
20260509070151 21 139 0.0 4.8 0.00 0.00 0.00 88 1011.3
20260509064602 22 146 0.0 6.4 0.00 0.00 0.00 87 1010.7
20260509063110 22 201 0.0 9.7 0.00 0.00 0.00 87 1010.8
20260509061613 22 238 3.2 12.9 0.00 0.00 0.00 86 1010.8
20260509060148 22 199 1.6 8.0 0.00 0.00 0.00 86 1010.3
20260509054546 22 136 4.8 11.3 0.00 0.00 0.00 86 1010.6
20260509053045 22 148 3.2 11.3 0.00 0.00 0.00 85 1010.3
20260509051544 22 148 1.6 11.3 0.00 0.00 0.00 85 1009.7
20260509050144 22 143 0.0 11.3 0.00 0.00 0.00 84 1009.8